Location: B?dimalle
(17.1788°N, 80.5377°E)
Time: 15:58:53
(UTC+00:00)

Courier 1B Rocket - Visible Passes

Search period start: 12 December 2025 00:00
Search period end: 22 December 2025 00:00
Orbit: 920 x 1201 km, 28.3° (Epoch: 12 December)

Date Brightness Start Highest point End Pass type
(mag) Time Alt. Az. Time Alt. Az. Time Alt. Az.
12 Dec 5.4 00:09:28 14° W 00:14:49 50° SSW 00:20:50 10° SE visible
12 Dec 6.4 13:36:09 10° SSW 13:42:53 32° SSE 13:45:19 27° ESE visible
12 Dec 7.1 15:28:43 10° WSW 15:31:40 25° WSW 15:31:40 25° WSW visible
12 Dec 7.6 21:25:46 12° E 21:25:46 12° E 21:26:10 10° E visible
12 Dec 4.9 23:12:08 54° W 23:13:40 75° SSW 23:19:58 10° ESE visible
13 Dec 6.9 12:35:52 10° SSW 12:41:26 21° SSE 12:47:03 10° ESE visible
13 Dec 5.6 14:27:18 10° SW 14:34:20 63° S 14:34:20 63° S visible
13 Dec 6.0 22:14:48 42° ESE 22:14:48 42° ESE 22:18:51 10° ESE visible
14 Dec 6.0 00:01:10 15° W 00:05:40 32° SSW 00:11:11 10° SSE visible
14 Dec 5.9 13:26:13 10° SW 13:33:34 47° SSE 13:36:59 30° E visible
14 Dec 6.8 15:19:36 10° WSW 15:23:21 31° W 15:23:21 31° W visible
14 Dec 7.8 21:17:29 10° E 21:17:29 10° E 21:17:31 10° E visible
14 Dec 5.3 23:03:51 48° SW 23:04:32 50° SSW 23:10:40 10° SE visible
15 Dec 6.5 12:25:30 10° SSW 12:32:08 32° SSE 12:38:53 10° E visible
15 Dec 5.2 14:17:59 10° WSW 14:25:49 89° SSE 14:26:00 86° ENE visible
15 Dec 6.4 22:06:31 33° SE 22:06:31 33° SE 22:09:49 10° ESE visible
15 Dec 6.5 23:52:53 14° WSW 23:56:29 21° SSW 00:01:05 10° SSE visible
16 Dec 5.5 13:16:39 10° SW 13:24:17 67° SSE 13:28:38 28° E visible
16 Dec 6.7 15:10:41 10° W 15:15:00 34° WNW 15:15:00 34° WNW visible
16 Dec 6.0 22:55:33 33° SSW 22:55:33 33° SSW 23:01:03 10° SSE visible
17 Dec 5.4 14:08:55 10° WSW 14:16:39 70° NNW 14:17:37 63° NNE visible
17 Dec 8.0 16:03:56 10° WNW 16:03:59 10° WNW 16:03:59 10° WNW visible
17 Dec 6.9 21:58:13 23° SE 21:58:13 23° SE 22:00:31 10° SE visible
17 Dec 7.0 23:44:35 10° WSW 23:47:18 13° SSW 23:49:57 10° S visible
18 Dec 5.4 13:07:22 10° WSW 13:15:02 90° N 13:20:13 24° ENE visible
18 Dec 6.6 15:01:56 10° W 15:06:35 34° WNW 15:06:35 34° WNW visible
18 Dec 6.7 22:47:13 21° SSW 22:47:13 21° SSW 22:50:57 10° SSE visible
19 Dec 5.7 14:00:03 10° W 14:07:34 54° NNW 14:09:10 47° NNE visible
19 Dec 7.9 15:55:13 10° WNW 15:55:32 11° WNW 15:55:32 11° WNW visible
19 Dec 7.4 21:49:50 14° SSE 21:49:50 14° SSE 21:50:53 10° SSE visible
20 Dec 5.6 12:58:21 10° WSW 13:05:53 69° NNW 13:11:45 19° ENE visible
20 Dec 6.6 14:53:15 10° WNW 14:58:06 32° NW 14:58:06 32° NW visible
20 Dec 7.2 22:38:47 12° SSW 22:38:47 12° SSW 22:39:56 10° S visible
21 Dec 6.0 13:51:20 10° W 13:58:35 44° NNW 14:00:40 37° NNE visible
21 Dec 7.8 15:46:24 10° WNW 15:47:01 12° WNW 15:47:01 12° WNW visible
